Location: Unspecified
(37.4194°N, 0.0000°E)
Time: 16:13:04
(UTC+00:00)

Cosmos 1110 - Visible Passes

Search period start: 04 April 2026 00:00
Search period end: 14 April 2026 00:00
Orbit: 768 x 787 km, 74.0° (Epoch: 29 March)

Date Brightness Start Highest point End Pass type
(mag) Time Alt. Az. Time Alt. Az. Time Alt. Az.
5 Apr 8.4 22:51:37 10° N 22:51:53 11° N 22:51:53 11° N visible
6 Apr 8.2 22:17:54 10° N 22:18:21 12° NNE 22:18:21 12° NNE visible
7 Apr 8.1 21:44:35 10° NNE 21:44:50 11° NNE 21:44:50 11° NNE visible
7 Apr 8.5 23:25:13 10° NNW 23:25:18 10° NNW 23:25:18 10° NNW visible
8 Apr 8.2 22:50:59 10° NNW 22:51:48 15° NNW 22:51:48 15° NNW visible
9 Apr 7.9 22:16:55 10° N 22:18:18 18° N 22:18:18 18° N visible
10 Apr 7.6 21:43:05 10° N 21:44:51 19° NNE 21:44:51 19° NNE visible
11 Apr 7.6 21:09:32 10° NNE 21:11:24 16° NE 21:11:24 16° NE visible
11 Apr 8.1 22:50:44 10° NNW 22:51:52 16° NW 22:51:52 16° NW visible
12 Apr 7.7 20:36:45 10° NNE 20:37:59 12° NE 20:37:59 12° NE visible
12 Apr 7.5 22:16:23 10° NNW 22:18:27 24° NNW 22:18:27 24° NNW visible
13 Apr 7.0 21:42:15 10° N 21:45:03 31° N 21:45:03 31° N visible
